カタログに戻る

STARLINK-32388

運用中通信VLEO
NORAD 62144·PAYLOAD·🇺🇸 United States

打ち上げ Nov 30, 2024 から Cape Canaveral Space Force Station

Loading…

次のパス (今後24時間)

TLE

最新Source: CelesTrak SupGP

元期: Sep 14, 2026, 22:48 UTC

1 62144C 24224F   26257.95048611 -.00055104  00000+0 -19956-2 0  2572
2 62144  43.0004 176.7409 0001470 269.2323 265.8555 15.27609436    13

AllMySatでSTARLINK-32388をリアルタイム追跡

Download on the App Store